GW0416 Weather Reports


time (UTC)temp
F
wind
direction
speed
knots
gust
knots
rain 1hr
in
rain 24hr
in
rain mn
in
humidity
%
barometer
mb
20260507124532 44 295 5.2 8.7 0.00 0.00 0.00 57 1011.4
20260507123029 42 279 6.1 8.7 0.00 0.00 0.00 55 1011.1
20260507121528 41 267 6.1 7.8 0.00 0.00 0.00 54 1010.9
20260507120030 42 290 6.1 7.8 0.00 0.00 0.00 54 1010.9
20260507114531 42 292 5.2 7.0 0.00 0.00 0.00 53 1010.8
20260507113034 44 253 4.3 7.0 0.00 0.00 0.00 49 1010.7
20260507111533 42 285 6.1 7.8 0.00 0.00 0.00 53 1010.4
20260507110032 43 298 6.1 7.8 0.00 0.00 0.00 52 1010.3
20260507104531 43 360 3.5 5.2 0.00 0.00 0.00 55 1010.3
20260507103028 43 325 4.3 7.0 0.00 0.00 0.00 56 1010.2
20260507101552 42 321 6.1 9.6 0.00 0.00 0.00 57 1010.2
20260507100035 42 12 7.0 13.9 0.00 0.00 0.00 61 1010.1
20260507094531 42 316 7.0 10.4 0.00 0.00 0.00 58 1010.0
20260507093032 42 339 3.5 7.0 0.00 0.00 0.00 60 1009.8
20260507091548 42 12 5.2 7.0 0.00 0.00 0.00 59 1010.0
20260507090029 42 355 5.2 7.8 0.00 0.00 0.00 62 1009.9
20260507084529 42 22 7.0 10.4 0.00 0.00 0.00 65 1009.2
20260507083031 43 22 8.7 11.3 0.00 0.00 0.00 65 1009.4
20260507081547 45 24 9.6 13.9 0.00 0.00 0.00 61 1009.4
20260507080031 45 30 1.7 5.2 0.00 0.00 0.00 57 1009.3
20260507074536 46 28 4.3 7.0 0.00 0.00 0.00 55 1009.2
20260507073030 45 55 2.6 5.2 0.00 0.00 0.00 57 1009.0
20260507071531 46 65 3.5 7.0 0.00 0.00 0.00 57 1009.0
20260507070030 46 76 5.2 9.6 0.00 0.00 0.00 56 1008.9
20260507064530 48 55 6.1 11.3 0.00 0.00 0.00 55 1008.7
20260507063030 49 65 10.4 13.9 0.00 0.00 0.00 53 1008.6
20260507061533 49 65 8.7 13.0 0.00 0.00 0.00 54 1008.6
20260507060032 52 54 8.7 15.6 0.00 0.00 0.00 47 1008.7
20260507054531 54 40 16.5 20.0 0.00 0.00 0.00 36 1008.7
20260507053030 54 71 8.7 12.2 0.00 0.00 0.00 36 1008.0
20260507051532 55 55 11.3 15.6 0.00 0.00 0.00 34 1008.0
20260507050034 56 80 10.4 12.2 0.00 0.00 0.00 32 1007.7
20260507044542 55 99 7.0 8.7 0.00 0.00 0.00 33 1007.8
20260507043037 56 98 5.2 9.6 0.00 0.00 0.00 32 1007.7
20260507041532 59 69 7.8 11.3 0.00 0.00 0.00 29 1007.7
20260507040030 59 118 7.0 13.9 0.00 0.00 0.00 29 1007.6
20260507034532 60 118 7.0 11.3 0.00 0.00 0.00 28 1007.8
20260507033030 61 0 1.7 14.8 0.00 0.00 0.00 28 1008.0
20260507031530 58 178 3.5 7.0 0.00 0.00 0.00 30 1007.6
20260507030037 59 126 6.1 8.7 0.00 0.00 0.00 30 1007.3
20260507024534 60 123 7.0 7.8 0.00 0.00 0.00 29 1007.2
20260507023033 62 107 5.2 6.1 0.00 0.00 0.00 27 1007.1
20260507021529 63 87 3.5 9.6 0.00 0.00 0.00 26 1007.1
20260507020033 66 355 2.6 4.3 0.00 0.00 0.00 24 1007.0
20260507014535 67 327 1.7 5.2 0.00 0.00 0.00 24 1007.2
20260507013035 67 316 1.7 4.3 0.00 0.00 0.00 24 1007.1
20260507011533 67 345 6.1 13.0 0.00 0.00 0.00 23 1007.2
20260507010032 69 346 7.8 16.5 0.00 0.00 0.00 23 1007.2
20260507004532 70 343 9.6 16.5 0.00 0.00 0.00 22 1007.4
20260507003028 70 28 13.9 20.0 0.00 0.00 0.00 22 1007.5
20260507001534 70 350 8.7 15.6 0.00 0.00 0.00 23 1007.4
20260507000033 69 355 7.8 13.9 0.00 0.00 0.00 24 1007.4
20260506234533 68 22 7.8 15.6 0.00 0.00 0.00 24 1007.3
20260506233032 69 328 5.2 12.2 0.00 0.00 0.00 23 1007.4
20260506231533 68 344 6.1 11.3 0.00 0.00 0.00 24 1007.6
20260506230028 68 270 5.2 11.3 0.00 0.00 0.00 24 1007.8
20260506224534 67 311 5.2 13.0 0.00 0.00 0.00 23 1008.0
20260506223036 66 275 7.0 12.2 0.00 0.00 0.00 23 1008.4
20260506221533 66 273 5.2 10.4 0.00 0.00 0.00 23 1008.8
20260506220036 65 300 7.8 15.6 0.00 0.00 0.00 23 1009.0
20260506214531 65 277 10.4 14.8 0.00 0.00 0.00 23 1009.4
20260506213030 64 243 9.6 14.8 0.00 0.00 0.00 24 1009.4
20260506211532 63 324 8.7 16.5 0.00 0.00 0.00 24 1009.7
20260506210032 63 294 7.8 13.0 0.00 0.00 0.00 25 1010.0
20260506204532 62 312 8.7 15.6 0.00 0.00 0.00 25 1010.2
20260506203030 61 249 7.8 14.8 0.00 0.00 0.00 26 1010.5
20260506201541 60 234 4.3 11.3 0.00 0.00 0.00 25 1010.7
20260506200032 59 292 7.0 13.9 0.00 0.00 0.00 25 1010.9
20260506194534 58 292 5.2 18.2 0.00 0.00 0.00 27 1011.1
20260506193030 57 254 9.6 19.1 0.00 0.00 0.00 26 1011.4
20260506191532 57 232 7.0 11.3 0.00 0.00 0.00 25 1011.6
20260506190029 56 204 8.7 20.0 0.00 0.00 0.00 27 1012.0
20260506184536 55 178 9.6 20.0 0.00 0.00 0.00 25 1012.3
20260506183031 54 221 7.0 14.8 0.00 0.00 0.00 26 1012.6
20260506181530 53 196 7.0 14.8 0.00 0.00 0.00 26 1012.7
20260506180032 52 165 8.7 17.4 0.00 0.00 0.00 28 1013.1
20260506174532 51 203 8.7 13.9 0.00 0.00 0.00 27 1013.4
20260506173035 50 207 8.7 15.6 0.00 0.00 0.00 28 1013.6
20260506171539 49 211 7.0 14.8 0.00 0.00 0.00 31 1014.0
20260506170029 49 196 8.7 15.6 0.00 0.00 0.00 33 1014.4
20260506164532 48 169 8.7 16.5 0.00 0.00 0.00 36 1014.4
20260506163039 47 211 10.4 15.6 0.00 0.00 0.00 38 1014.6
20260506161538 46 184 9.6 13.9 0.00 0.00 0.00 42 1014.9
20260506160034 44 244 8.7 14.8 0.00 0.00 0.00 47 1015.0
20260506154537 43 232 10.4 15.6 0.00 0.00 0.00 49 1015.3
20260506153028 42 215 10.4 15.6 0.00 0.00 0.00 51 1015.4
20260506151530 41 219 10.4 14.8 0.00 0.00 0.00 53 1015.7
20260506150032 41 215 8.7 13.9 0.00 0.00 0.00 54 1015.7
20260506144531 40 220 8.7 13.9 0.00 0.00 0.00 55 1015.9
20260506143029 39 254 9.6 13.9 0.00 0.00 0.00 55 1016.1
20260506141526 38 212 8.7 12.2 0.00 0.00 0.00 54 1016.3
20260506140034 38 213 6.1 9.6 0.00 0.00 0.00 53 1016.3
20260506134532 36 184 4.3 7.0 0.00 0.00 0.00 53 1016.3
20260506133031 34 213 3.5 6.1 0.00 0.00 0.00 56 1016.3
20260506131533 33 234 3.5 6.1 0.00 0.00 0.00 56 1016.3
20260506130032 31 262 0.9 3.5 0.00 0.00 0.00 56 1016.4